Weather History for Laramie, WY

Change the Weather History Date:

Tuesday, August 20, 2013

  Actual Average Record
Temperature  
Mean Temperature 69 °F 62 °F  
Max Temperature 87 °F 77 °F 87 °F (2013)
Min Temperature 51 °F 46 °F 31 °F (1964)
Degree Days  
Heating Degree Days 0 4  
Month to date heating degree days 45 50  
Since 1 June heating degree days 170 360  
Since 1 July heating degree days 67 119  
Cooling Degree Days 4 0  
Month to date cooling degree days 25 17  
Year to date cooling degree days 119 64  
Since 1 June cooling degree days 119 64  
Growing Degree Days 19 (Base 50)    
Moisture  
Dew Point 37 °F    
Average Humidity 34    
Maximum Humidity 54    
Minimum Humidity 14    
Precipitation  
Precipitation 0.00 in 0.04 in 0.38 in (1961)
Month to date precipitation 0.28 0.85  
Year to date precipitation 5.58 7.77  
Sea Level Pressure  
Sea Level Pressure 29.90 in    
Wind  
Wind Speed 9 mph (SW)    
Max Wind Speed 26 mph    
Max Gust Speed 37 mph    
Visibility 10 miles    
Events      
T = Trace of Precipitation, MM = Missing Value Source: NWS Daily Summary

Daily Weather History Graph

Daily Weather History Graph

Search for Another Location

Airport:

Trip Planner

Search our weather history database for the weather conditions in past years. The results will help you decide how hot, cold, wet, or windy it might be!

Date:

Astronomy

Aug. 20, 2013 Rise Set
Actual Time 6:17 AM MDT 7:53 PM MDT
Civil Twilight 5:47 AM MDT 8:23 PM MDT
Nautical Twilight 5:12 AM MDT 8:58 PM MDT
Astronomical Twilight 4:34 AM MDT 9:35 PM MDT
Moon 7:26 PM MDT (8/20) 5:50 AM MDT (8/20)
Length of Visible Light 14h 35m
Length of Day
13h 36m
Full, 100% of the Moon is Illuminated
Aug 20
Full
Aug 20
Full
Aug 28
Last Quarter
Sep 5
New
Sep 12
First Quarter

Hourly Weather History & Observations

Time (MDT) Temp. Dew Point Humidity Pressure Visibility Wind Dir Wind Speed Gust Speed Precip Events Conditions
12:53 AM 57.0 °F 35.1 °F 44% 29.86 in 10.0 mi SSW 10.4 mph - N/A   Clear
1:53 AM 55.9 °F 35.1 °F 45% 29.86 in 10.0 mi South 9.2 mph - N/A   Clear
2:53 AM 54.0 °F 35.1 °F 49% 29.86 in 10.0 mi South 5.8 mph - N/A   Clear
3:53 AM 51.1 °F 35.1 °F 54% 29.87 in 10.0 mi SE 6.9 mph - N/A   Clear
4:53 AM 53.1 °F 36.0 °F 52% 29.87 in 10.0 mi SE 9.2 mph - N/A   Clear
5:53 AM 51.1 °F 35.1 °F 54% 29.88 in 10.0 mi SE 8.1 mph - N/A   Clear
6:53 AM 55.0 °F 36.0 °F 49% 29.89 in 10.0 mi South 4.6 mph - N/A   Clear
7:53 AM 63.0 °F 37.9 °F 40% 29.89 in 10.0 mi SSE 5.8 mph - N/A   Clear
8:53 AM 73.0 °F 39.9 °F 30% 29.89 in 10.0 mi SSW 10.4 mph - N/A   Clear
9:53 AM 75.9 °F 37.9 °F 25% 29.89 in 10.0 mi WSW 4.6 mph - N/A   Clear
10:53 AM 81.0 °F 34.0 °F 18% 29.87 in 10.0 mi NW 4.6 mph - N/A   Clear
11:53 AM 82.0 °F 32.0 °F 16% 29.89 in 10.0 mi North 11.5 mph - N/A   Clear
12:53 PM 84.9 °F 33.1 °F 16% 29.86 in 10.0 mi Variable 4.6 mph - N/A   Clear
1:53 PM 87.1 °F 33.1 °F 15% 29.84 in 10.0 mi NW 15.0 mph 21.9 mph N/A   Clear
2:53 PM 86.0 °F 32.0 °F 14% 29.85 in 10.0 mi NW 15.0 mph 21.9 mph N/A   Clear
3:53 PM 82.0 °F 33.1 °F 17% 29.88 in 10.0 mi WNW 24.2 mph 31.1 mph N/A   Scattered Clouds
4:49 PM 75.2 °F 41.0 °F 29% 30.25 in 10.0 mi SSW 25.3 mph 32.2 mph N/A   Overcast
4:53 PM 75.9 °F 39.9 °F 27% 29.93 in 10.0 mi SSW 23.0 mph 32.2 mph N/A   Overcast
5:53 PM 75.0 °F 39.9 °F 28% 29.95 in 10.0 mi SSE 6.9 mph - N/A   Mostly Cloudy
6:53 PM 73.0 °F 42.1 °F 33% 29.95 in 10.0 mi NW 8.1 mph - N/A   Mostly Cloudy
7:53 PM 70.0 °F 42.1 °F 36% 29.93 in 10.0 mi NNW 4.6 mph - N/A   Scattered Clouds
8:53 PM 69.1 °F 42.1 °F 38% 29.90 in 10.0 mi North 4.6 mph - N/A   Overcast
9:53 PM 68.0 °F 42.1 °F 39% 29.90 in 10.0 mi NNE 4.6 mph - N/A   Mostly Cloudy
10:53 PM 66.9 °F 41.0 °F 39% 29.89 in 10.0 mi WSW 6.9 mph - N/A   Mostly Cloudy
11:53 PM 64.9 °F 42.1 °F 43% 29.88 in 10.0 mi WSW 5.8 mph - N/A   Mostly Cloudy